Wetbulb
75.85 75.47 75.20 73.12 62.80 62.06 57.81 59.22 63.06 59.30 59.33 63.19 62.34 60.84 61.06 64.50 62.53 59.17 69.46 71.58 71.48 73.26 74.23 75.43 76.77 76.38 76.13 76.30 76.35 76.47 76.67 76.74 76.71 76.73 77.03 77.06 77.16 76.89 77.12 76.81 76.96 76.96 76.82 76.78 77.01 76.74 76.74 76.60 76.71
75.14 74.12 74.00 69.56 60.05 56.94 57.77 62.31 60.68 62.84 63.69 63.58 66.02 65.03 63.15 62.70 67.34 65.89 68.63 71.61 73.08 73.42 73.94 74.80 76.81 77.13 76.50 76.70 76.89 76.76 76.52 76.31 76.53 76.67 76.80 77.28 77.05 77.00 77.22 77.05 77.02 76.79 76.84 76.74 76.69 76.63 76.16 76.12 76.07
74.44 74.29 69.11 64.25 60.42 56.84 57.43 62.16 62.86 63.85 64.59 63.60 64.66 66.72 64.56 63.56 66.30 66.82 71.38 71.64 73.04 74.21 73.98 75.32 76.48 77.17 76.48 76.73 76.77 76.61 76.64 76.06 76.28 76.31 76.73 77.11 76.89 77.10 77.17 77.34 77.05 77.15 77.70 76.82 75.99 76.29 76.18 75.73 76.02
72.78 72.45 68.53 61.60 57.47 59.73 60.89 63.49 64.32 64.17 65.62 66.56 65.74 63.07 66.62 68.82 67.03 70.62 72.48 71.59 73.65 74.34 74.23 76.01 77.20 76.52 76.86 76.69 76.69 76.59 76.58 76.25 76.18 76.29 76.75 76.98 77.18 77.39 77.19 77.05 77.12 76.82 76.93 77.02 76.93 76.79 76.41 76.09 76.63
73.65 69.21 61.37 59.23 58.86 60.97 63.31 65.20 65.44 64.06 64.32 64.75 65.59 61.50 63.43 68.80 72.42 71.83 71.60 73.07 73.75 73.95 75.02 76.52 77.34 76.89 76.83 76.87 76.81 76.64 76.95 76.54 76.45 76.40 76.53 76.98 77.26 77.56 77.49 77.43 77.32 76.96 77.10 76.96 77.18 76.77 76.49 76.52 75.98
65.95 66.23 59.66 56.71 58.75 62.24 64.56 66.60 66.06 64.83 64.92 64.17 63.04 63.01 63.96 71.91 70.37 71.18 72.70 73.23 74.11 74.04 75.12 76.16 77.02 77.07 76.62 76.81 76.90 76.76 76.65 76.73 76.69 76.60 76.72 76.88 77.39 77.38 77.39 77.28 77.27 77.30 77.27 76.90 76.27 76.18 75.88 75.31 75.27
63.68 63.09 58.81 58.76 59.50 60.90 63.78 67.82 65.05 64.69 64.57 63.80 65.22 61.51 66.19 69.43 70.44 72.16 72.81 73.90 74.04 74.49 75.05 75.95 76.32 76.81 75.91 76.15 75.32 76.02 76.54 76.85 76.95 76.54 76.33 77.27 77.23 77.41 77.19 77.05 77.12 77.19 77.35 76.88 76.57 76.23 75.85 75.52 75.21
66.71 64.51 59.32 60.18 58.98 59.81 65.45 66.54 67.31 65.72 64.42 68.15 67.72 61.90 63.27 68.81 71.52 71.70 72.78 73.75 74.05 74.58 75.27 75.80 76.16 76.51 76.64 76.52 76.39 77.01 76.92 77.04 76.47 76.25 76.63 76.98 76.91 76.79 76.61 75.96 76.29 76.88 76.77 76.96 76.46 75.85 75.51 75.41 75.57
68.45 61.88 58.87 58.69 59.32 61.47 66.38 64.78 67.09 68.55 66.25 66.74 67.34 66.37 68.43 71.07 72.02 71.33 70.90 72.86 73.62 74.46 74.72 75.11 75.11 75.95 76.17 76.71 76.82 77.33 77.22 77.03 76.89 76.68 76.48 76.92 75.36 74.88 74.76 74.73 74.43 76.38 76.60 76.63 76.63 76.04 75.52 76.34 75.99
63.85 61.07 59.35 63.57 63.40 62.97 65.71 65.93 65.87 64.96 64.83 64.74 66.43 69.19 69.84 70.45 70.03 68.71 69.18 70.39 71.28 72.90 73.80 74.51 75.17 75.67 75.99 76.49 77.24 77.73 77.55 75.66 76.92 76.59 76.76 77.50 77.64 76.62 75.08 75.17 74.14 75.58 76.28 76.66 76.60 76.61 75.65 74.56 75.79
62.35 59.99 62.53 63.13 65.41 66.51 65.66 65.80 67.17 65.11 63.21 65.22 65.27 67.05 68.27 68.87 68.97 69.05 69.76 71.00 71.00 72.47 73.19 74.29 75.46 75.82 75.92 76.30 76.82 76.72 76.51 76.88 77.10 77.05 76.49 76.99 76.64 75.98 76.88 74.59 74.28 74.74 76.73 76.20 75.35 72.53 71.53 72.13 73.74
60.02 62.94 63.13 63.85 65.69 66.36 65.38 67.11 64.27 65.70 65.68 67.94 68.08 69.10 68.57 66.96 68.35 68.13 69.36 70.26 70.47 72.29 72.94 74.17 74.29 75.56 75.99 76.62 76.83 76.67 75.90 75.78 75.35 75.55 76.35 76.38 74.96 73.32 73.69 75.21 75.08 75.98 75.88 75.72 75.49 73.47 72.97 72.61 73.78
60.92 62.49 64.22 65.47 65.45 66.34 67.17 65.13 65.14 64.85 67.40 68.11 68.27 68.72 67.54 67.26 68.33 69.78 70.43 70.23 70.47 71.31 72.86 73.46 73.88 74.91 75.22 76.09 75.92 75.78 75.52 75.09 75.28 75.57 75.00 75.37 75.37 72.95 76.58 73.28 74.47 76.07 75.22 74.85 74.69 73.99 73.25 72.46 72.56
63.43 63.51 63.95 66.20 65.83 66.44 65.03 65.09 65.52 65.22 67.46 66.59 66.68 67.32 67.57 68.02 68.54 69.37 69.18 68.31 69.40 70.96 71.85 72.76 73.17 74.23 74.30 74.89 75.73 75.55 75.82 76.02 75.82 75.49 75.37 75.78 75.10 75.39 74.86 75.44 75.67 75.13 75.51 75.05 74.03 74.38 73.67 72.92 72.32
63.90 60.46 63.76 65.61 66.21 65.27 66.63 62.85 61.73 65.63 66.64 65.59 66.53 67.50 67.83 68.46 69.33 68.71 67.91 67.75 68.52 69.95 71.47 71.61 72.24 72.62 73.11 73.91 74.52 74.95 74.91 74.85 75.54 76.09 76.35 75.53 75.90 75.36 75.11 76.47 74.96 75.06 74.62 74.26 74.09 74.36 74.68 73.77 73.61
59.70 60.97 59.25 63.67 65.46 64.95 63.84 58.41 62.73 65.60 64.57 64.74 65.65 65.52 66.37 67.55 68.35 69.21 68.52 67.19 67.57 69.62 70.95 71.70 71.94 72.60 73.48 74.04 74.68 75.34 75.53 74.93 74.99 75.46 76.46 76.23 76.11 76.03 74.63 74.75 74.49 75.06 73.91 73.22 73.50 74.49 73.03 73.53 73.34
57.69 54.62 57.50 60.27 64.83 64.27 63.11 60.35 63.34 65.20 63.38 63.14 65.12 65.21 65.31 66.51 67.24 67.79 68.92 68.94 67.98 69.44 70.93 70.68 72.70 73.04 73.64 74.44 74.93 75.35 76.16 75.76 77.14 75.91 75.96 76.79 76.23 75.47 74.67 73.78 74.63 74.97 73.56 73.09 74.05 74.13 73.86 73.02 72.64
53.23 53.79 55.69 58.23 62.50 63.52 61.65 61.23 63.51 64.05 62.95 62.61 64.08 64.75 65.30 64.83 67.06 68.52 70.37 70.79 70.45 69.49 70.43 70.98 72.64 74.01 74.71 74.63 74.94 75.10 74.82 74.71 76.85 75.60 76.46 76.78 76.11 75.75 74.98 74.17 74.15 74.51 73.49 72.97 73.69 74.56 74.72 73.72 72.46
57.48 55.37 54.44 56.42 62.54 62.05 61.08 61.78 62.89 63.97 63.26 61.89 62.67 63.53 64.74 65.86 67.88 68.79 70.00 71.19 71.05 70.25 69.81 71.02 72.31 74.08 74.16 73.11 72.98 73.12 72.90 73.49 74.37 76.52 76.93 76.77 76.23 75.80 75.90 75.04 73.91 74.38 73.45 73.36 73.91 73.67 73.21 73.06 73.52
57.00 54.75 54.29 56.41 61.81 62.27 61.49 60.86 63.45 64.04 63.63 63.33 62.85 63.23 64.06 65.23 66.48 67.47 69.07 69.81 70.71 71.13 71.47 71.57 72.58 74.01 73.99 74.25 74.14 74.02 73.48 73.07 73.94 76.72 77.34 77.50 77.05 76.89 76.10 75.54 74.73 74.82 73.11 72.27 73.07 73.22 72.50 73.54 73.70
54.32 53.75 54.08 55.33 60.65 62.14 61.10 58.97 61.10 63.85 65.29 64.85 64.04 64.35 64.60 64.49 65.36 66.53 67.66 69.01 69.62 70.89 71.55 71.77 72.57 73.58 74.24 74.74 74.05 73.66 74.19 73.88 73.97 74.93 76.37 76.98 77.16 77.04 76.74 76.47 75.52 74.85 74.38 72.96 73.13 73.30 71.12 70.96 73.87
50.39 54.50 55.85 57.75 58.18 55.23 60.55 53.86 59.10 62.24 62.73 64.12 64.98 63.77 63.91 64.57 65.69 66.81 67.37 68.34 68.75 68.89 70.13 71.44 72.30 72.98 73.58 74.56 74.69 73.98 71.89 71.31 72.90 74.51 75.59 77.04 77.12 77.04 76.87 76.63 75.76 75.29 74.59 74.18 73.39 73.51 71.64 71.54 71.42
53.31 56.66 56.71 59.62 57.98 57.70 57.27 55.59 57.54 61.40 60.66 62.91 65.04 65.68 65.01 65.12 65.54 65.37 66.64 68.21 68.97 68.35 68.91 70.35 71.87 72.13 73.92 74.01 74.63 73.78 72.84 72.53 73.31 74.63 74.74 76.30 77.06 77.05 76.95 76.57 76.07 74.26 73.59 74.87 74.32 73.79 73.45 71.17 71.59
59.36 59.07 57.84 58.19 58.02 52.06 54.74 55.80 56.52 58.36 60.97 63.39 65.41 66.27 66.63 66.43 65.88 66.37 66.86 67.68 68.19 69.07 69.08 68.94 70.61 71.91 72.39 73.07 73.91 73.87 73.36 73.17 72.24 73.52 74.00 74.78 75.53 76.67 76.33 76.49 74.96 72.98 74.61 74.40 74.93 72.88 73.77 73.30 72.25
56.65 56.33 50.98 50.16 51.16 49.70 53.14 55.24 56.96 60.17 62.74 64.45 64.93 65.78 67.23 67.94 67.58 67.16 66.91 66.18 66.93 67.57 68.22 69.14 70.46 72.24 73.55 73.05 72.91 73.53 73.83 73.99 73.47 73.55 72.85 74.19 74.17 75.32 76.20 75.54 74.46 73.74 73.86 73.94 74.44 73.90 73.38 72.87 73.08
53.50 52.34 48.57 43.35 46.37 49.01 52.79 51.86 57.44 60.14 61.45 64.85 66.81 67.14 67.48 67.76 68.61 68.41 68.46 67.99 67.31 67.64 68.61 69.29 69.72 71.23 72.50 73.01 73.31 73.78 73.95 73.30 73.03 73.20 73.08 73.19 73.62 74.29 75.65 74.59 74.25 70.53 71.56 71.36 72.71 73.77 74.58 74.52 74.56
50.63 49.48 51.80 49.79 50.74 51.49 53.78 55.61 58.19 59.48 60.91 62.24 63.76 65.89 66.50 67.44 68.33 68.88 69.56 68.90 68.97 68.67 69.11 69.80 70.86 71.00 71.29 71.96 72.94 73.24 73.59 73.27 72.71 73.71 73.63 72.76 74.19 73.90 75.09 74.11 72.76 72.10 70.83 70.24 72.31 72.13 73.10 73.79 74.54
52.58 53.77 50.55 53.26 47.41 46.17 50.59 51.60 53.62 57.20 59.05 61.49 63.07 64.30 65.97 68.06 68.34 68.84 69.54 69.84 69.71 69.55 69.75 69.78 70.51 70.41 70.71 70.83 71.18 71.45 71.61 72.10 72.32 72.51 72.69 73.03 73.15 74.13 74.95 75.45 75.12 73.57 72.89 72.71 71.80 71.95 73.40 74.26 74.02
51.81 51.86 50.71 53.56 52.45 48.87 47.16 50.49 58.08 58.54 60.76 60.96 63.18 65.41 66.66 67.47 68.44 69.01 68.97 69.50 69.99 69.92 69.80 69.32 69.65 69.80 70.19 70.45 70.74 70.40 70.59 70.43 70.97 71.27 72.19 72.26 72.68 74.39 75.18 75.68 75.76 75.75 76.10 74.99 74.15 74.44 74.08 74.79 74.35
54.49 53.06 52.29 49.71 48.45 51.99 51.63 51.36 58.87 59.32 59.45 62.13 63.12 64.79 66.30 68.03 68.74 69.56 69.79 69.50 68.75 68.85 69.41 69.67 69.94 69.90 70.43 70.73 70.68 70.34 70.73 71.12 71.04 71.18 71.22 73.55 74.04 74.98 75.33 75.80 76.00 75.36 75.98 77.43 76.47 75.07 75.71 74.67 74.74
MSLP
1009.48 1009.43 1009.56 1009.37 1009.59 1008.78 1008.43 1008.58 1008.39 1008.94 1009.44 1009.91 1010.74 1011.04 1011.42 1012.08 1012.39 1013.63 1014.04 1014.43 1014.43 1014.91 1015.21 1015.51 1015.76 1015.86 1015.95 1016.09 1016.21 1016.37 1016.43 1016.46 1016.50 1016.53 1016.62 1016.77 1016.85 1016.96 1017.05 1017.15 1017.18 1017.35 1017.56 1017.68 1017.64 1017.79 1017.99 1018.11 1018.28
1009.41 1009.50 1009.39 1009.08 1009.00 1008.34 1008.58 1008.52 1008.63 1008.96 1009.35 1010.01 1010.79 1011.27 1011.90 1012.66 1013.07 1013.86 1014.11 1014.43 1014.50 1014.87 1015.09 1015.35 1015.87 1015.98 1016.17 1016.26 1016.35 1016.50 1016.68 1016.71 1016.73 1016.74 1016.80 1016.95 1017.07 1017.23 1017.21 1017.37 1017.45 1017.57 1017.70 1018.01 1018.09 1018.25 1018.45 1018.54 1018.70
1009.43 1009.46 1009.27 1008.95 1008.86 1008.28 1008.42 1008.58 1008.93 1009.41 1009.85 1010.11 1010.95 1011.69 1012.37 1013.04 1013.48 1013.71 1013.95 1014.34 1014.54 1014.94 1015.17 1015.47 1015.91 1016.08 1016.26 1016.40 1016.44 1016.50 1016.69 1016.86 1016.98 1017.00 1017.06 1017.20 1017.26 1017.42 1017.46 1017.67 1017.78 1017.83 1017.99 1018.27 1018.49 1018.62 1018.78 1019.03 1019.39
1009.32 1009.35 1009.60 1009.12 1008.52 1008.56 1008.50 1008.69 1009.12 1009.34 1010.05 1010.62 1011.15 1012.15 1013.10 1013.21 1013.50 1013.82 1014.25 1014.26 1014.59 1014.92 1015.23 1015.67 1015.96 1016.17 1016.40 1016.51 1016.50 1016.57 1016.75 1016.91 1017.09 1017.22 1017.22 1017.35 1017.50 1017.57 1017.74 1017.92 1018.03 1018.26 1018.38 1018.47 1018.69 1018.93 1019.14 1019.42 1019.41
1009.34 1009.09 1008.92 1008.69 1008.45 1008.49 1008.79 1008.90 1009.17 1009.35 1010.03 1010.79 1011.24 1012.62 1013.36 1013.80 1013.79 1014.05 1014.43 1014.61 1014.64 1014.98 1015.37 1015.66 1016.07 1016.30 1016.47 1016.52 1016.51 1016.62 1016.73 1017.01 1017.16 1017.42 1017.37 1017.49 1017.61 1017.74 1017.79 1018.08 1018.28 1018.46 1018.60 1018.72 1018.94 1019.17 1019.39 1019.57 1019.74
1009.28 1009.03 1008.61 1008.34 1008.26 1008.36 1008.48 1008.68 1008.99 1009.41 1010.16 1011.02 1011.73 1012.49 1013.71 1014.13 1014.21 1014.28 1014.51 1014.76 1014.82 1015.19 1015.35 1015.67 1016.22 1016.46 1016.61 1016.64 1016.61 1016.70 1016.80 1016.98 1017.36 1017.57 1017.67 1017.71 1017.93 1018.06 1018.17 1018.36 1018.50 1018.64 1018.84 1019.09 1019.22 1019.39 1019.72 1019.79 1019.92
1009.23 1008.78 1008.77 1008.44 1008.02 1007.74 1008.12 1008.66 1008.81 1009.30 1010.07 1010.75 1011.38 1012.39 1013.86 1014.27 1014.44 1014.52 1014.69 1015.00 1015.09 1015.29 1015.59 1015.92 1016.05 1016.46 1016.66 1016.72 1016.73 1016.73 1016.88 1017.23 1017.43 1017.73 1017.87 1018.00 1018.13 1018.27 1018.45 1018.62 1018.80 1018.87 1019.10 1019.33 1019.52 1019.72 1019.84 1019.98 1020.02
1009.10 1008.62 1008.34 1007.99 1007.66 1007.47 1007.73 1008.30 1008.73 1009.01 1009.87 1010.67 1011.02 1011.87 1013.14 1013.91 1014.68 1014.67 1014.92 1015.31 1015.52 1015.59 1015.83 1016.16 1016.39 1016.40 1016.63 1016.83 1016.85 1016.82 1017.20 1017.38 1017.71 1017.99 1018.13 1018.44 1018.39 1018.56 1018.89 1019.07 1019.18 1019.24 1019.41 1019.52 1019.76 1019.87 1020.05 1020.04 1020.04
1009.26 1008.53 1007.93 1007.63 1007.47 1007.38 1007.59 1007.93 1009.09 1009.50 1009.79 1010.39 1010.96 1011.43 1012.03 1013.60 1014.35 1014.99 1015.17 1015.45 1015.69 1015.97 1016.03 1016.20 1016.44 1016.61 1016.80 1017.01 1017.14 1017.22 1017.45 1017.62 1017.84 1018.27 1018.58 1018.67 1019.10 1019.35 1019.62 1019.78 1019.61 1019.50 1019.53 1019.63 1019.91 1020.01 1020.17 1020.19 1020.35
1008.96 1008.31 1007.76 1007.42 1007.18 1007.02 1007.32 1007.65 1008.54 1009.44 1009.87 1010.61 1011.30 1011.91 1012.87 1013.82 1014.16 1014.68 1015.08 1015.21 1015.48 1015.89 1016.19 1016.43 1016.61 1016.75 1016.94 1016.97 1017.33 1017.48 1017.64 1017.96 1018.17 1018.43 1018.58 1018.85 1019.00 1019.36 1019.66 1019.84 1019.99 1019.80 1019.72 1019.78 1019.96 1020.22 1020.49 1020.63 1020.65
1008.63 1008.01 1007.65 1007.12 1006.87 1006.52 1007.13 1007.79 1008.32 1008.93 1009.55 1010.14 1011.01 1012.15 1013.24 1013.79 1014.15 1014.55 1015.12 1015.30 1015.30 1015.86 1016.28 1016.60 1017.02 1017.06 1017.12 1017.31 1017.58 1017.60 1017.67 1017.94 1018.15 1018.42 1018.64 1018.90 1019.08 1019.38 1019.50 1019.87 1019.95 1020.03 1019.85 1020.06 1020.44 1020.72 1020.89 1021.00 1021.10
1008.09 1007.70 1007.49 1007.04 1006.79 1006.60 1007.13 1007.79 1008.61 1009.07 1009.15 1009.73 1010.98 1011.89 1012.99 1013.66 1014.27 1014.46 1014.74 1015.19 1015.57 1016.08 1016.36 1016.76 1017.05 1017.31 1017.54 1017.68 1017.86 1018.02 1017.78 1017.96 1018.19 1018.35 1018.56 1018.79 1019.14 1019.43 1019.61 1019.81 1020.04 1019.99 1020.08 1020.15 1020.39 1020.67 1020.91 1021.06 1021.26
1008.00 1007.23 1006.92 1006.67 1006.72 1006.78 1007.36 1008.05 1008.78 1009.72 1009.92 1010.66 1011.39 1012.29 1013.13 1013.68 1014.28 1014.90 1015.07 1015.38 1015.56 1015.97 1016.37 1016.78 1017.13 1017.45 1017.59 1017.81 1017.97 1017.96 1017.91 1017.88 1018.21 1018.39 1018.53 1018.68 1018.82 1019.54 1019.40 1019.77 1020.01 1020.00 1020.00 1020.20 1020.50 1020.60 1020.73 1020.92 1021.11
1007.23 1006.94 1006.51 1006.08 1006.10 1006.72 1007.49 1008.54 1009.14 1010.42 1010.82 1011.31 1011.85 1012.51 1013.17 1013.54 1014.02 1014.69 1015.07 1015.32 1015.78 1015.85 1016.25 1016.75 1017.18 1017.46 1017.65 1017.69 1017.94 1017.86 1017.94 1017.84 1018.10 1018.41 1018.65 1018.85 1018.94 1019.14 1019.37 1019.60 1019.61 1019.81 1020.07 1020.26 1020.70 1020.80 1020.79 1020.83 1020.93
1006.94 1006.51 1006.18 1006.15 1006.38 1006.77 1007.31 1008.65 1010.17 1010.89 1011.36 1011.84 1012.33 1012.88 1013.42 1013.68 1014.22 1014.56 1014.84 1015.02 1015.28 1015.75 1016.13 1016.68 1017.07 1017.30 1017.60 1017.58 1017.78 1017.89 1017.91 1017.91 1017.99 1018.14 1018.57 1018.86 1018.99 1019.27 1019.33 1019.41 1019.52 1019.80 1020.36 1020.52 1020.68 1020.82 1020.87 1020.83 1020.97
1006.59 1006.51 1005.96 1006.25 1006.26 1007.03 1007.33 1008.93 1010.48 1011.17 1011.71 1012.13 1012.55 1013.35 1013.57 1013.96 1014.18 1014.72 1014.87 1015.03 1015.41 1015.87 1016.08 1016.65 1016.93 1017.10 1017.42 1017.47 1017.67 1017.67 1017.71 1017.75 1017.89 1018.00 1018.35 1018.76 1019.02 1019.22 1019.53 1019.57 1019.63 1019.95 1020.28 1020.33 1020.33 1020.47 1020.84 1020.75 1020.90
1006.14 1005.72 1005.75 1006.05 1006.27 1006.59 1007.40 1008.82 1010.47 1011.18 1011.79 1012.24 1012.56 1013.04 1013.49 1013.96 1014.64 1014.88 1014.86 1014.99 1015.31 1015.61 1016.12 1016.42 1016.76 1016.95 1017.20 1017.41 1017.59 1017.72 1017.74 1017.67 1017.64 1017.89 1018.13 1018.51 1018.93 1019.37 1019.49 1019.58 1019.71 1020.20 1020.12 1020.18 1020.23 1020.38 1020.42 1020.61 1020.83
1005.68 1005.56 1005.73 1005.76 1006.26 1006.61 1007.48 1008.70 1010.22 1011.00 1011.60 1012.06 1012.43 1012.75 1013.11 1013.51 1013.73 1014.35 1014.54 1014.68 1014.84 1015.43 1015.93 1016.36 1016.52 1016.79 1017.12 1017.23 1017.61 1017.58 1017.62 1017.62 1017.74 1017.88 1017.87 1018.44 1018.85 1019.21 1019.50 1019.57 1019.73 1019.98 1020.05 1020.05 1020.12 1020.22 1020.43 1020.38 1020.61
1005.77 1005.53 1005.50 1005.75 1005.99 1006.51 1007.32 1008.42 1009.64 1010.60 1011.27 1011.69 1012.03 1012.41 1012.60 1012.76 1013.25 1013.76 1014.16 1014.33 1014.75 1015.23 1015.72 1016.17 1016.45 1016.75 1017.08 1017.33 1017.45 1017.48 1017.34 1017.52 1017.62 1017.71 1017.99 1018.37 1018.66 1018.93 1019.17 1019.28 1019.54 1019.86 1020.04 1020.19 1020.39 1020.32 1020.38 1020.38 1020.54
1005.46 1005.30 1005.18 1005.66 1005.91 1006.28 1007.35 1008.21 1009.15 1009.90 1010.35 1010.86 1011.24 1011.69 1012.05 1012.46 1012.81 1013.22 1013.56 1014.04 1014.38 1014.82 1015.34 1015.88 1016.22 1016.61 1016.91 1017.00 1017.08 1017.17 1017.35 1017.37 1017.35 1017.48 1017.81 1018.10 1018.32 1018.63 1018.84 1018.99 1019.11 1019.48 1019.92 1020.26 1020.28 1020.34 1020.30 1020.33 1020.39
1004.91 1004.71 1004.87 1005.28 1005.98 1006.43 1006.94 1007.86 1008.74 1009.36 1009.88 1010.41 1010.89 1011.17 1011.52 1011.94 1012.21 1012.60 1013.12 1013.52 1014.01 1014.41 1014.90 1015.36 1015.80 1016.16 1016.56 1016.78 1017.01 1017.14 1017.36 1017.34 1017.40 1017.48 1017.61 1017.68 1018.09 1018.28 1018.40 1018.64 1018.84 1019.15 1019.40 1019.59 1019.93 1020.01 1020.36 1020.30 1020.38
1003.94 1004.23 1004.65 1005.03 1005.50 1005.71 1006.53 1006.44 1007.63 1008.29 1008.89 1009.34 1009.73 1010.32 1010.77 1011.28 1011.81 1012.11 1012.63 1013.09 1013.59 1014.05 1014.60 1015.04 1015.42 1015.78 1016.11 1016.41 1016.57 1016.68 1016.62 1016.72 1017.00 1017.26 1017.49 1017.65 1017.82 1017.92 1018.19 1018.52 1018.83 1019.04 1019.07 1019.44 1019.66 1019.81 1020.22 1020.44 1020.20
1004.19 1004.42 1004.56 1004.94 1005.30 1005.77 1006.02 1006.25 1006.30 1007.27 1007.59 1007.81 1008.51 1009.03 1009.65 1010.37 1011.01 1011.52 1012.01 1012.37 1012.90 1013.76 1014.25 1014.73 1015.07 1015.50 1015.73 1015.85 1016.09 1016.29 1016.40 1016.56 1017.00 1017.29 1017.52 1017.75 1017.71 1017.73 1018.02 1018.32 1018.66 1019.09 1019.02 1019.07 1019.41 1019.61 1019.92 1020.30 1020.36
1003.87 1004.03 1004.47 1004.90 1005.00 1004.93 1005.41 1005.64 1004.89 1005.71 1005.33 1006.18 1007.26 1007.96 1008.72 1009.42 1010.26 1010.85 1011.51 1011.98 1012.39 1012.99 1013.70 1014.47 1014.75 1015.17 1015.58 1015.84 1016.03 1016.14 1016.39 1016.50 1016.87 1017.11 1017.12 1017.34 1017.54 1017.67 1017.87 1018.19 1018.69 1019.07 1018.93 1019.17 1019.29 1019.58 1019.83 1020.05 1020.15
1003.36 1003.21 1003.73 1004.10 1004.34 1004.16 1005.09 1004.97 1003.27 1004.13 1004.52 1004.89 1005.94 1007.09 1007.95 1008.67 1009.41 1009.99 1010.52 1011.16 1011.81 1012.40 1012.99 1013.45 1014.05 1014.54 1015.02 1015.43 1015.55 1015.88 1016.06 1016.22 1016.37 1016.59 1016.66 1016.78 1016.97 1017.38 1017.69 1017.92 1018.45 1018.56 1018.69 1018.99 1019.08 1019.30 1019.42 1019.53 1019.47
1002.42 1002.43 1002.38 1002.70 1003.43 1003.63 1004.65 1003.77 1002.88 1003.59 1004.02 1004.54 1005.06 1006.12 1007.11 1007.92 1008.45 1009.05 1009.62 1010.32 1010.94 1011.54 1012.17 1012.80 1013.39 1013.82 1014.30 1015.02 1015.27 1015.66 1015.93 1016.10 1016.20 1016.51 1016.70 1016.63 1016.70 1016.92 1017.42 1017.76 1018.09 1018.70 1018.54 1018.89 1018.94 1018.89 1018.83 1018.95 1019.07
1002.16 1002.41 1002.44 1002.53 1003.76 1003.48 1003.26 1002.88 1002.92 1003.50 1004.11 1004.75 1005.18 1005.69 1006.25 1006.85 1007.51 1008.03 1008.73 1009.53 1010.19 1010.95 1011.51 1012.14 1012.76 1013.31 1013.89 1014.28 1014.83 1015.28 1015.74 1016.06 1016.22 1016.55 1016.65 1016.52 1016.52 1016.65 1017.01 1017.43 1017.66 1018.06 1018.30 1018.09 1018.33 1018.66 1018.56 1018.55 1018.43
1001.48 1001.94 1002.08 1002.13 1002.44 1002.43 1002.45 1002.70 1002.36 1003.20 1003.78 1004.42 1004.90 1005.23 1005.57 1006.14 1006.83 1007.43 1008.06 1008.84 1009.60 1010.32 1011.03 1011.65 1012.20 1012.60 1012.97 1013.57 1014.09 1014.60 1015.14 1015.75 1016.18 1016.15 1016.21 1016.28 1016.22 1016.17 1016.54 1016.90 1017.18 1017.47 1017.43 1017.61 1018.06 1018.19 1018.03 1017.99 1017.79
1001.55 1001.52 1001.95 1002.12 1002.36 1001.90 1001.98 1001.60 1002.06 1002.82 1003.46 1003.95 1004.71 1005.24 1005.62 1006.07 1006.59 1007.31 1007.85 1008.65 1009.31 1010.01 1010.64 1011.16 1011.65 1012.07 1012.48 1013.00 1013.45 1014.23 1014.67 1014.93 1015.28 1015.48 1015.74 1015.88 1015.87 1015.81 1015.97 1016.21 1016.39 1016.54 1016.77 1017.05 1017.31 1017.31 1017.29 1017.20 1017.22
1000.72 1000.96 1001.04 1001.17 1002.09 1002.42 1002.14 1001.72 1002.45 1003.24 1003.51 1004.20 1004.82 1005.32 1005.76 1006.14 1006.83 1007.32 1007.85 1008.41 1008.94 1009.47 1010.01 1010.47 1011.00 1011.38 1011.68 1012.26 1013.16 1013.50 1013.89 1014.52 1014.81 1014.99 1015.12 1015.38 1015.25 1015.37 1015.45 1015.49 1015.60 1015.74 1015.88 1015.94 1016.14 1016.18 1016.23 1016.54 1016.57
Wind_Speed
7 4 1 2 1 1 3 5 5 14 10 7 15 4 7 6 3 3 9 7 18 15 13 12 11 12 11 11 9 9 10 9 10 10 10 11 11 10 12 13 14 14 15 14 15 16 15 15 15
6 2 2 1 1 2 3 4 12 5 8 19 9 9 4 5 5 10 10 16 18 14 13 12 9 11 11 11 10 11 9 10 9 9 10 11 11 11 12 13 14 15 17 15 14 15 14 13 13
6 1 1 2 2 3 4 6 13 15 12 13 5 7 3 3 9 15 12 18 17 14 12 12 11 11 10 11 11 11 11 10 8 8 9 12 10 12 11 13 13 13 15 15 14 14 13 13 12
2 2 2 1 5 2 3 10 15 15 9 6 9 8 4 2 14 8 18 18 16 14 12 13 11 10 8 9 9 9 10 10 9 8 8 11 10 13 12 11 13 13 12 14 13 13 13 13 12
0 1 2 3 4 3 4 11 8 9 7 7 3 5 8 5 10 19 18 15 15 13 11 11 9 9 9 8 8 9 11 10 11 8 9 10 11 12 13 12 12 12 13 13 13 13 11 11 10
1 1 2 5 4 5 7 9 9 8 7 9 10 9 4 11 17 17 16 14 13 12 10 9 9 8 6 7 7 9 10 11 10 8 9 10 11 11 11 11 12 12 13 13 13 12 9 8 5
0 2 3 2 5 5 7 10 6 9 11 7 12 7 6 13 15 15 15 13 12 11 9 7 8 7 4 4 4 9 12 10 10 8 10 11 11 10 9 9 9 11 13 12 11 10 8 6 3
2 1 2 2 2 4 9 9 9 7 7 16 9 7 9 13 14 13 14 12 11 10 9 7 6 6 5 5 9 15 13 10 9 10 10 11 9 9 9 7 7 10 10 11 10 8 7 5 5
1 2 3 3 2 3 12 7 6 5 15 4 2 9 16 21 19 14 12 12 11 8 8 7 7 6 5 6 8 12 13 12 10 10 11 7 3 7 5 6 1 8 10 11 10 9 7 8 9
2 2 2 1 3 2 13 10 10 7 13 7 12 16 22 21 19 17 14 15 14 12 10 8 7 7 6 5 7 7 7 4 5 6 6 4 5 7 8 7 3 6 10 11 10 10 9 7 4
0 2 1 1 5 4 11 9 5 13 7 9 17 22 22 22 19 18 15 14 14 12 8 9 6 6 6 5 4 3 4 4 4 6 5 4 4 4 3 3 3 1 7 4 6 4 3 5 3
4 3 4 2 3 4 10 9 6 1 1 11 19 25 23 21 18 15 17 14 13 12 10 9 7 6 5 4 3 2 3 4 4 4 5 4 4 3 2 3 5 5 4 5 5 4 5 5 4
4 2 3 6 4 7 9 6 6 3 5 17 21 23 20 20 18 14 14 13 13 12 11 10 8 6 5 5 4 3 3 4 3 3 4 3 4 3 3 3 3 3 4 4 4 4 4 5 5
4 6 7 3 8 9 9 6 0 6 11 16 19 21 17 20 19 15 14 11 12 12 11 10 9 7 6 5 5 3 3 4 4 3 4 4 3 3 4 4 4 4 3 3 3 3 3 4 4
3 3 6 7 9 6 12 7 7 8 13 16 17 17 17 17 17 15 15 14 14 11 12 11 10 9 7 6 5 4 4 4 4 4 5 4 5 4 4 3 4 3 3 4 3 2 2 3 3
2 1 2 3 6 5 4 5 7 11 12 14 16 14 14 16 17 13 11 11 7 10 13 12 10 9 8 6 4 4 4 4 4 4 4 5 5 4 4 2 3 4 4 5 3 2 2 3 4
0 3 2 4 1 7 1 6 10 12 10 12 15 16 14 14 11 6 11 11 11 14 13 13 12 11 9 7 5 6 4 4 2 3 4 6 5 4 4 4 3 4 4 4 3 3 3 2 4
5 3 1 3 9 4 4 6 12 12 11 12 14 14 16 16 18 16 16 14 14 14 14 12 10 10 8 5 4 4 3 3 1 3 3 5 4 5 4 3 4 5 4 4 4 2 2 3 4
5 7 7 3 6 6 5 9 14 13 11 13 14 15 16 17 16 15 16 15 13 13 13 13 12 9 7 5 5 4 5 3 3 3 3 5 5 6 5 3 5 5 5 4 4 3 4 4 5
7 8 5 3 7 6 6 9 12 14 14 14 16 17 18 16 14 15 16 15 15 15 14 13 13 11 10 7 5 3 2 3 3 2 3 5 6 6 6 5 5 6 5 4 6 6 3 2 5
4 5 3 3 6 4 9 6 11 11 10 12 14 15 17 18 18 17 16 17 15 16 14 15 14 14 11 12 5 3 2 2 3 4 3 4 6 6 7 7 6 6 6 6 7 7 4 3 4
4 5 5 10 8 1 4 1 10 12 15 14 16 16 18 20 19 19 18 17 17 14 9 13 15 15 13 13 9 9 6 6 4 3 3 2 5 6 7 6 6 6 4 5 5 5 4 3 5
5 7 7 9 5 3 5 5 6 12 14 18 17 18 19 19 21 21 21 20 17 13 13 13 14 12 11 11 11 9 9 5 3 3 3 3 3 5 5 6 5 5 5 5 6 7 7 3 3
13 12 10 4 1 5 1 5 4 9 17 15 17 18 18 18 19 20 20 21 19 17 15 12 15 14 13 13 14 13 11 9 5 5 4 3 3 2 4 4 4 4 6 6 6 4 5 5 7
4 8 3 2 3 3 1 6 9 8 8 13 19 18 18 18 18 18 19 19 19 19 18 16 16 15 14 14 14 13 13 11 9 7 5 4 4 4 2 5 5 4 4 5 6 5 7 9 9
12 5 3 3 3 1 3 6 0 2 4 8 14 17 17 17 17 18 19 19 19 19 18 17 15 15 15 12 12 11 12 8 7 6 5 5 4 4 2 4 6 5 4 3 6 6 7 7 7
6 5 3 7 1 3 1 4 8 7 8 10 13 15 19 20 19 19 19 18 17 17 18 17 15 13 14 15 11 11 10 11 8 8 6 6 6 4 5 6 7 7 8 8 7 7 8 8 8
4 7 4 2 3 3 2 5 5 4 10 12 13 15 16 17 18 18 17 17 15 16 15 16 15 15 16 15 14 13 13 10 8 10 10 10 8 7 6 8 9 9 10 9 10 8 10 10 7
5 4 6 4 3 2 3 3 2 4 8 13 9 9 11 14 14 14 14 14 14 14 14 15 15 16 14 14 14 12 12 13 12 10 9 10 8 6 7 8 9 8 10 10 10 10 9 9 8
1 2 5 4 5 1 2 3 1 4 3 7 9 8 7 9 9 10 12 13 14 15 15 15 15 15 15 13 12 13 13 9 11 10 11 9 7 6 8 9 8 8 8 8 10 9 8 9 10
Wind_Direction
156 165 196 231 247 49 75 71 82 112 126 142 153 176 149 41 19 58 137 161 141 146 150 150 145 142 141 140 136 127 128 125 129 137 134 134 118 114 109 106 107 108 108 108 113 112 110 109 102
147 172 227 61 37 119 81 89 121 100 124 131 113 113 54 80 68 119 131 153 144 145 149 150 152 147 146 145 141 142 146 136 134 139 146 127 126 117 115 111 113 118 113 113 112 109 108 105 106
146 18 355 23 53 42 81 99 107 112 124 143 105 55 61 68 117 141 137 148 143 146 152 143 160 143 146 156 156 157 152 145 145 139 137 127 134 127 122 117 113 115 119 118 115 113 114 118 110
154 113 86 16 49 83 60 126 124 125 107 81 105 75 82 79 137 145 146 147 145 149 156 145 161 145 159 154 159 160 147 154 150 146 145 133 138 131 130 123 124 117 113 117 117 118 129 125 110
50 115 90 76 66 81 123 130 132 129 108 106 88 97 103 115 122 140 145 150 146 149 152 151 146 154 166 156 168 164 155 159 152 150 140 140 142 141 130 128 121 124 122 124 116 114 121 121 123
59 263 79 60 77 105 137 159 129 115 119 126 107 111 99 134 140 147 148 150 149 150 153 149 150 153 158 171 169 171 155 149 150 158 146 144 137 136 129 124 126 128 123 121 118 117 121 120 123
48 85 73 74 89 113 140 161 151 129 135 123 140 101 122 147 149 148 151 148 148 152 153 151 151 142 141 181 162 163 157 148 149 140 138 134 135 133 124 130 128 129 129 125 123 125 114 113 101
176 113 126 97 90 103 139 157 134 138 100 130 143 155 162 161 150 151 146 142 149 156 156 148 137 123 148 101 112 132 140 133 143 126 121 123 129 126 108 50 141 137 127 128 121 117 105 76 86
305 71 41 71 43 14 155 137 106 89 140 136 122 148 146 149 151 140 146 152 152 158 159 157 140 129 108 111 105 116 125 136 133 111 115 104 108 99 79 162 114 128 126 127 130 125 112 92 92
285 71 40 345 326 260 178 152 136 135 142 113 92 113 137 149 158 155 161 161 165 161 166 155 147 136 135 108 113 114 105 81 97 104 118 108 129 125 150 149 53 127 125 125 126 111 94 81 75
111 97 155 20 344 217 162 142 120 146 185 169 152 146 152 159 161 160 165 170 171 169 160 159 155 144 151 125 126 132 126 126 111 117 120 132 97 97 122 125 133 106 115 100 92 81 70 81 74
356 243 246 274 20 107 155 140 104 139 100 155 154 155 154 162 162 171 170 169 171 176 171 163 161 147 141 135 152 133 149 141 147 126 137 142 122 109 127 117 156 133 131 130 128 127 124 114 93
240 262 230 237 245 112 109 95 108 45 72 136 145 153 156 163 165 174 173 177 173 177 171 171 162 158 157 163 159 170 171 167 146 164 166 171 165 139 151 114 127 150 139 139 142 151 146 133 124
302 284 298 337 183 138 120 92 121 71 126 139 153 157 158 166 170 169 182 173 175 176 174 165 170 169 180 180 185 186 216 191 187 189 196 208 208 181 175 170 153 150 160 137 134 166 164 164 167
285 344 119 112 128 117 128 73 78 117 135 143 157 158 162 168 172 181 180 182 181 184 167 171 176 178 194 194 200 208 232 230 224 204 204 205 199 188 224 162 167 155 150 135 123 171 186 197 187
288 228 134 152 144 141 206 118 134 145 143 152 163 162 173 176 179 191 186 185 166 176 175 177 181 188 198 206 214 229 221 241 243 227 197 205 202 182 195 207 191 167 175 177 180 179 225 226 201
350 91 106 168 227 155 249 126 153 151 159 162 171 171 183 179 182 188 203 191 182 186 181 185 185 189 207 206 224 241 234 256 302 223 211 204 201 186 199 221 193 176 197 192 197 175 170 189 185
334 330 159 180 192 171 162 117 156 168 173 174 178 183 183 182 193 193 209 201 192 193 183 190 188 197 203 200 192 207 232 253 269 236 218 191 184 177 194 221 206 198 208 216 201 221 170 166 172
291 286 283 255 163 178 189 157 171 173 181 182 188 192 194 196 190 192 195 195 193 194 192 187 187 195 186 184 202 211 231 242 250 234 226 197 183 189 188 205 197 199 215 218 230 216 211 188 182
251 269 288 186 149 187 162 158 177 182 192 197 194 195 197 197 191 191 191 196 198 194 196 192 200 191 198 206 207 214 214 228 254 258 212 200 199 192 191 202 209 208 192 203 217 218 219 253 188
237 238 180 112 138 72 149 162 187 203 207 200 208 209 199 198 195 194 194 196 200 201 200 199 204 202 204 210 196 180 194 211 213 210 192 210 209 201 206 206 216 214 216 211 204 213 204 215 191
342 219 160 145 181 232 229 296 205 194 209 212 205 202 205 202 204 203 198 199 198 203 201 200 204 208 208 207 210 209 213 215 214 209 205 204 211 211 219 224 218 226 231 233 220 218 210 239 226
1 130 132 140 140 266 196 265 113 190 211 214 211 207 206 201 202 204 210 210 203 197 202 210 212 213 215 204 213 214 229 228 220 196 211 232 218 216 223 228 233 221 233 234 232 216 208 202 215
138 107 98 112 212 256 72 248 186 181 218 207 204 206 207 205 201 202 207 213 214 213 206 201 218 217 218 220 223 225 223 221 222 212 219 239 249 224 210 220 215 205 231 242 237 214 223 228 221
176 189 124 143 212 283 54 222 273 188 200 197 192 197 201 204 201 202 201 202 210 214 215 215 211 212 212 217 219 222 225 224 226 228 231 225 231 233 206 200 218 218 227 266 263 228 209 217 226
186 263 217 194 222 47 144 231 168 73 218 167 179 184 189 198 205 205 204 204 203 207 209 210 210 211 211 213 219 222 231 235 239 244 260 257 264 278 159 202 203 225 193 225 254 254 235 218 227
163 208 53 111 107 259 1 264 237 227 161 155 160 174 187 194 202 204 204 205 206 205 207 207 210 209 207 215 216 222 227 236 250 259 259 263 267 266 234 213 212 211 217 204 235 252 249 241 219
267 126 170 175 178 249 212 280 273 162 187 187 185 195 196 197 197 199 205 205 206 209 208 208 211 213 209 214 218 224 227 233 246 249 249 251 259 262 255 238 225 220 224 220 212 234 243 237 227
153 209 70 99 314 251 275 243 193 262 206 199 190 190 189 193 196 198 196 198 202 207 210 213 212 219 220 221 224 228 231 225 227 237 237 244 252 254 270 263 254 242 231 220 220 224 239 233 234
181 273 197 234 185 312 316 265 49 301 207 183 159 159 159 173 183 184 192 190 195 202 205 208 211 214 218 218 215 220 231 225 229 228 235 235 254 268 270 278 260 253 245 232 220 227 229 230 230